{"data":{"norad_id":67989,"intl_designator":"2026-039D","name":"STARLINK-36957","alt_names":[],"object_type":"PAYLOAD","status":"ACTIVE","operator":null,"country":"US","launch_date":"2026-02-27","launch_site_code":"AFETR","launch_vehicle":null,"mission":null,"orbit_class":"UNKNOWN","rcs_meters":null,"size_class":null,"mass_kg":null,"dimensions":null,"purposes":["comms"],"wikipedia_slug":null,"has_3d_model":false,"image_url":null,"decayed_at":null,"tle_current":{"epoch":"2026-05-24T22:46:56.284320Z","epoch_age_seconds":69613,"freshness":"FRESH","line1":"1 67989U 26039D   26144.94926255  .00011920  00000+0  44182-3 0  9992","line2":"2 67989  43.0010 338.4905 0001258 275.3653  84.7055 15.27591556 13366","mean_motion":15.27591556,"eccentricity":0.0001258,"inclination_deg":43.001,"raan_deg":338.4905,"arg_perigee_deg":275.3653,"mean_anomaly_deg":84.7055,"bstar":0.00044182,"rev_number":1336,"period_min":94.266035599898,"perigee_km":482.15136057867,"apogee_km":483.87762629442,"semimajor_km":6861.1514934365,"source":"CELESTRAK","updated_at":"2026-05-25T13:38:21.779256Z"}}}